Погода в Исите

Россия / Республика Саха (Якутия)     60°48′43″N   125°19′36″E
темп.,
°C
ветер,
м/с
пор.,
м/с
влажн.,
%
обл.,
%
осадки,
мм/ч
давл.,
гПа
погр.,
м
27 февраля, сб
сб2700:00−28вюв119688 0.0 102719
03:00−28вюв119477 0.0 102619
06:00−27вюв1192100 0.0 102519
09:00−25в1192100 0.0 102366
12:00−20всв1290100 0.0 1021376
15:00−19ссв2396100 0.4 1018308
18:00−20ссз1299100 0.6 1019107
21:00−22ссз1199100 1.3 101959
28 февраля, вс
вс2800:00−23зсз4897100 0.6 1020687
03:00−25зсз4996100 1.0 1020815
06:00−27зсз41096100 0.3 1022786
09:00−27зсз51095100 0.6 1024852
12:00−24зсз61091100 0.2 10261138
15:00−24зсз61090100 0.4 10271158
18:00−26з51092100 0.1 1029900
21:00−26з41094100 0.2 1031865
1 марта, пн
пн100:00−27з3996100 0.1 1031775
03:00−27з3894100 0.2 1031679
06:00−28з3895100 0.1 1032491
09:00−29з3795100 0.1 1032380
12:00−28з3793100 0.1 1031527
15:00−26з3690100 0.1 1030788
18:00−27зюз2595100 0.1 1030243
21:00−29зюз2298100 0.1 103033
2 марта, вт
вт200:00−31зюз129893 0.0 103019
03:00−33юз129793 0.0 102919
06:00−34ююз119797 0.0 102919
09:00−33ююз119577 0.0 102837
12:00−25ю018760 0.0 1026427
15:00−23всв118179 0.0 1025839
18:00−28всв1294100 0.0 102519
21:00−32в119796 0.0 102619
3 марта, ср
ср300:00−34в11971 0.0 102619
03:00−36всв11976 0.0 102619
06:00−37всв119841 0.0 102619
09:00−35св119746 0.0 102543
12:00−28ссв229178 0.0 1023294
15:00−26ссв238989 0.0 1021534
18:00−30с2297100 0.0 102219
21:00−34зсз119999 0.0 102319